STARLINK-11185, 62588

Orbit data source: Space-Track

STARLINK-11185, 62588 is a payload satellite owned by SpaceX/Seattle (US) in LEO that was launched on Mon, 13 Jan 2025 UTC via an FALCON 9 launch vehicle from the Air Force Eastern Test Range (AFETR). Payload-class satellites include a variety of spacecraft equipped with specific instruments for various scientific and technological missions. These include communications satellites like Starlink; space stations such as the ISS; scientific satellites like the Hubble; Earth observation satellites from companies like Planet Labs, Umbra, and HawkEye 360; GPS; miniature CubeSats for education and research; and military/defense satellites.

Loading next visibility...
Identifier
62588, 2025-008B
Orbit
LEO
Last TLE update
21 hours ago
Origin
Manufacturer
SpaceX/Seattle
Mission
Operational Commercial Communications
Bus & Motor
STARLINK V2M, Unknown motor
Mass
730 kg wet, ~700 kg dry
Launch date (UTC)
2025-01-13 (4 months ago)
Launch vehicle
FALCON 9
Launch site
Air Force Eastern Test Range (AFETR)
Object type
Payload
Rocket body
Debris
Shape & HBR
Box + 2 Pan, 29 m
Radar Cross Section
36.964 m², Large (>1 m²)

Expand to show TLE details & history

TLE from 21 hours ago
0 STARLINK-11185
1 62588U 25008B   25128.40613758  .00001260  00000-0  13317-4 0  9994
2 62588  43.0013 166.0825 0001483 272.7625  87.3073 15.70824956 18102
Epoch: 2025-05-08T09:44Z
Definitive object data (Epoch: 2025-05-08T09:44:50.286Z)
Latitude
-0.00003°
Longitude
153.39585°
Altitude
356.263 km
Speed
7.697 km/s
True Right ascension
11h 04m 19s
True Declination
0° 00' 00"
Sunlit
Object was in full shadow at TLE epoch
Visualization TLE readout
Latitude
-36.09801°
Longitude
19.18931°
Altitude
366.178 km
Speed
7.691 km/s
Apparent Right ascension
02h 25m 09s
Apparent Declination
-37° 51' 52"
Sunlit
Object is in daylight
Visualization observer readout
Local Sidereal Time
14:44:50
Azimuth
63.369° ENE
Elevation
-85.658°
Doppler factor
1
Orbital elements
Apogee altitude
359.518 km
Perigee altitude
357.52 km
Semi-major axis
6,736.656 km
Eccentricity
0.0001483
Inclination
43.0013°
RAAN
166.0825°
Arg. of periapsis
272.7625°
True anomaly
87.32428°
Mean anomaly
87.3073°
Eccentric anomaly
87.31579°
Mean motion
3.92533 °/min
BSTAR
0.000013317
Orbital period
91.71 mins
Loading maneuver chart data...
Loading SW <> Apogee altitude chart data...
Loading historical data...
Loading historical data...
Loading historical data...
Loading historical data...
Loading historical data...
Loading historical data...
Loading historical data...

STARLINK-11185 Visibility forecast

Observer location: undefined°, undefined°

Span
Click to sort rows by Start time (UTC) header in descending order
Start Az.
Max El. time (UTC)
Max El. Az.
Max El.
End time (UTC)
End Az.
5 mins2025-05-09 07:23:58.371Z269.766° W2025-05-09 07:25:58.371Z316.372° NNW38.854°2025-05-09 07:28:58.371Z68.093° E
4 mins2025-05-09 09:00:58.371Z300.206° NW2025-05-09 09:02:58.371Z30.17° NE34.244°2025-05-09 09:04:58.371Z77.972° E
4 mins2025-05-09 10:36:58.371Z280.095° WNW2025-05-09 10:38:58.371Z179.956° S41.434°2025-05-09 10:40:58.371Z123.018° SE
4 mins2025-05-10 06:15:58.371Z248.982° W2025-05-10 06:17:58.371Z81.311° E43.478°2025-05-10 06:19:58.371Z72.462° E
|